Weather in Siyava

Russia / Chuvash Republic     55°08′32″N   46°30′36″E
temp.,
°C
wind,
m/s
gust,
m/s
humid.,
%
clouds,
%
prec.,
mm/h
press.,
hPa
HPBL,
m
16 june, wed
wed1600:00+17ese398594 0.0 1010169
03:00+17e258795 0.0 1008108
06:00+19e248099 0.0 1007151
09:00+24ssw23605 0.0 1006498
12:00+27w22563 0.0 10061072
15:00+26wnw54622 0.0 10061032
18:00+24nw510725 0.1 1008781
21:00+19nnw411790 0.1 1010516
17 june, thu
thu1700:00+16n39900 0.0 1013331
03:00+13nnw23965 0.0 101571
06:00+16nnw24850 0.0 1017208
09:00+19nw45641 0.0 1018847
12:00+21nw57460 0.0 10191580
15:00+22nw57505 0.0 10191915
18:00+20nw47651 0.0 1020909
21:00+14nw22790 0.0 102231
18 june, fri
fri1800:00+11n22805 0.0 102431
03:00+10nnw22850 0.0 102535
06:00+13n23700 0.0 1027169
09:00+18nnw354856 0.0 10271087
12:00+21nnw45450 0.0 10271617
15:00+22nnw34455 0.0 10261620
18:00+20nne1265100 0.0 1026366
21:00+15s2271100 0.0 102711
19 june, sat
sat1900:00+13ssw228288 0.0 102711
03:00+12wsw22903 0.0 102815
06:00+16wsw36795 0.0 1028213
09:00+21wsw4668100 0.0 1027564
12:00+24w566298 0.0 10261181
15:00+25w56595 0.0 10251561
18:00+24w37725 0.0 1024750
21:00+19wsw36910 0.0 102499
20 june, sun
sun2000:00+17w36950 0.0 1024111
03:00+16wnw23950 0.0 102564
06:00+19wnw25830 0.0 1025202
09:00+24wnw35660 0.0 1025605
12:00+26wnw45590 0.0 10241201
15:00+27wnw44580 0.0 10231388
18:00+25wnw24710 0.0 1022397
21:00+20w22870 0.0 102313